Check out our new BloomSky Weather System.

Active alerts


No alerts


Thunder radar  blitzortung!


Rain radar more information rain snow radar


Visit our other weather sites:

Template documentation
and downloads

And another site



Weather Underground History page Text

Daily Summary for July 27, 2017 Units:  English    Metric   Both
« Previous Day
Next Day »
Daily Weekly Monthly Yearly Custom
  High: Low: Average:
Temperature: TemperatureF °F 77.0 °F 86.9 °F
Dew Point: DewpointF °F 72.9 °F 76 °F
Humidity: Humidity % 45 % 72 %
Wind Speed: WindSpeedMPH mph 0.0 mph 2.7 mph
Wind Gust: WindSpeedGustMPH mph - -
Wind:- - SSE
Pressure: PressureIn in 29.91 in -
Precipitation: 0.00 in    
Historical Graphs
 
 
Tabular Data for July 27, 2017
Time Temperature Dew Point Pressure Wind Wind Speed Wind Gust Humidity Rainfall Rate (Hourly)
TemperatureF °F DewpointF °F PressureIn in Calm     Humidity % HourlyPrecipIn in
00:02 82.2 °F 75.4 °F 30.03 in SSW 2.0 mph 4.0 mph 80 % 0.00 in
00:07 82.2 °F 75.7 °F 30.03 in SSE 3.0 mph 4.0 mph 81 % 0.00 in
00:12 82.2 °F 75.7 °F 30.03 in SSE 2.0 mph 6.0 mph 81 % 0.00 in
00:17 82.0 °F 75.6 °F 30.03 in SSE 1.0 mph 6.0 mph 81 % 0.00 in
00:22 82.0 °F 75.9 °F 30.03 in SE 2.0 mph 6.0 mph 82 % 0.00 in
00:27 82.0 °F 75.9 °F 30.03 in SSW 2.0 mph 4.0 mph 82 % 0.00 in
00:32 81.9 °F 76.1 °F 30.03 in South 2.0 mph 4.0 mph 83 % 0.00 in
00:37 81.9 °F 76.1 °F 30.02 in South 1.0 mph 5.0 mph 83 % 0.00 in
00:42 81.7 °F 75.9 °F 30.03 in Calm   5.0 mph 83 % 0.00 in
00:47 81.7 °F 75.9 °F 30.03 in South 2.0 mph 5.0 mph 83 % 0.00 in
00:52 81.7 °F 75.9 °F 30.03 in SSW 1.0 mph 4.0 mph 83 % 0.00 in
00:57 81.5 °F 76.3 °F 30.03 in SE 2.0 mph 3.0 mph 84 % 0.00 in
01:02 81.5 °F 76.3 °F 30.03 in SSW 2.0 mph 4.0 mph 84 % 0.00 in
01:07 81.3 °F 76.1 °F 30.03 in SSW 2.0 mph 4.0 mph 84 % 0.00 in
01:12 81.3 °F 76.1 °F 30.03 in South 1.0 mph 4.0 mph 84 % 0.00 in
01:17 81.1 °F 76.3 °F 30.03 in SW 2.0 mph 5.0 mph 85 % 0.00 in
01:22 81.1 °F 76.3 °F 30.03 in South 3.0 mph 5.0 mph 85 % 0.00 in
01:27 81.3 °F 76.5 °F 30.03 in SSE 1.0 mph 5.0 mph 85 % 0.00 in
01:32 81.1 °F 76.3 °F 30.03 in South 3.0 mph 5.0 mph 85 % 0.00 in
01:37 81.1 °F 76.3 °F 30.03 in SSE 2.0 mph 5.0 mph 85 % 0.00 in
01:42 81.0 °F 76.1 °F 30.03 in SSE 1.0 mph 5.0 mph 85 % 0.00 in
01:47 81.0 °F 76.1 °F 30.03 in South 1.0 mph 4.0 mph 85 % 0.00 in
01:52 81.0 °F 76.5 °F 30.03 in SSE 1.0 mph 4.0 mph 86 % 0.00 in
01:57 80.8 °F 76.3 °F 30.03 in SE 2.0 mph 3.0 mph 86 % 0.00 in
02:02 80.8 °F 76.3 °F 30.03 in SSE 1.0 mph 3.0 mph 86 % 0.00 in
02:07 80.8 °F 76.3 °F 30.03 in SSW 1.0 mph 3.0 mph 86 % 0.00 in
02:12 80.4 °F 76.1 °F 30.03 in South 2.0 mph 4.0 mph 87 % 0.00 in
02:17 80.4 °F 76.1 °F 30.03 in South 2.0 mph 4.0 mph 87 % 0.00 in
02:23 80.2 °F 76.1 °F 30.03 in SSE 2.0 mph 4.0 mph 87 % 0.00 in
02:27 80.2 °F 76.1 °F 30.02 in SSE 1.0 mph 4.0 mph 87 % 0.00 in
02:33 80.1 °F 75.9 °F 30.03 in Calm   3.0 mph 87 % 0.00 in
02:38 80.1 °F 76.1 °F 30.03 in South 1.0 mph 3.0 mph 88 % 0.00 in
02:43 80.1 °F 76.1 °F 30.03 in Calm   2.0 mph 88 % 0.00 in
02:48 79.9 °F 75.9 °F 30.03 in South 1.0 mph 2.0 mph 88 % 0.00 in
02:53 79.9 °F 75.9 °F 30.02 in Calm   2.0 mph 88 % 0.00 in
02:58 79.9 °F 75.9 °F 30.03 in Calm   2.0 mph 88 % 0.00 in
03:03 79.5 °F 75.6 °F 30.02 in Calm   2.0 mph 88 % 0.00 in
03:08 79.3 °F 75.6 °F 30.02 in Calm   2.0 mph 88 % 0.00 in
03:13 79.2 °F 75.6 °F 30.02 in Calm     89 % 0.00 in
03:18 79.2 °F 75.6 °F 30.02 in Calm     89 % 0.00 in
03:23 79.2 °F 75.9 °F 30.01 in Calm     90 % 0.00 in
03:28 79.2 °F 75.9 °F 30.01 in South 1.0 mph 1.0 mph 90 % 0.00 in
03:33 79.2 °F 75.9 °F 30.01 in Calm   2.0 mph 90 % 0.00 in
03:36 79.2 °F 75.9 °F 30.01 in Calm   2.0 mph 90 % 0.00 in
03:41 79.2 °F 75.9 °F 30.01 in Calm   2.0 mph 90 % 0.00 in
03:46 79.2 °F 75.9 °F 30.01 in Calm   2.0 mph 90 % 0.00 in
03:51 79.2 °F 76.3 °F 30.01 in SSE 1.0 mph 1.0 mph 91 % 0.00 in
03:56 79.2 °F 76.3 °F 30.01 in Calm   2.0 mph 91 % 0.00 in
04:01 79.2 °F 76.3 °F 30.01 in Calm   2.0 mph 91 % 0.00 in
04:06 79.2 °F 76.3 °F 30.01 in Calm   2.0 mph 91 % 0.00 in
04:11 79.2 °F 76.3 °F 30.01 in SSW 1.0 mph 1.0 mph 91 % 0.00 in
04:16 79.2 °F 76.3 °F 30.01 in SSE 1.0 mph 1.0 mph 91 % 0.00 in
04:21 79.2 °F 76.3 °F 30.01 in Calm   1.0 mph 91 % 0.00 in
04:22 79.2 °F 76.3 °F 30.01 in Calm   1.0 mph 91 % 0.00 in
04:27 79.0 °F 76.1 °F 30.01 in Calm   1.0 mph 91 % 0.00 in
04:32 79.0 °F 76.1 °F 30.01 in Calm   1.0 mph 91 % 0.00 in
04:37 78.8 °F 75.9 °F 30.01 in Calm   1.0 mph 91 % 0.00 in
04:42 78.6 °F 75.7 °F 30.01 in Calm     91 % 0.00 in
04:47 78.4 °F 75.6 °F 30.01 in Calm     91 % 0.00 in
04:52 78.4 °F 75.6 °F 30.01 in Calm   1.0 mph 91 % 0.00 in
04:57 78.3 °F 75.7 °F 30.01 in Calm   1.0 mph 92 % 0.00 in
05:02 78.3 °F 75.7 °F 30.01 in Calm   1.0 mph 92 % 0.00 in
05:07 78.3 °F 75.7 °F 30.01 in Calm   1.0 mph 92 % 0.00 in
05:12 78.1 °F 75.6 °F 30.01 in Calm   1.0 mph 92 % 0.00 in
05:17 78.1 °F 75.9 °F 30.01 in Calm     93 % 0.00 in
05:22 77.9 °F 75.7 °F 30.01 in Calm     93 % 0.00 in
05:27 77.7 °F 75.6 °F 30.01 in Calm     93 % 0.00 in
05:32 77.5 °F 75.4 °F 30.01 in Calm     93 % 0.00 in
05:37 77.5 °F 75.4 °F 30.00 in Calm   1.0 mph 93 % 0.00 in
05:42 77.5 °F 75.7 °F 30.00 in Calm   1.0 mph 94 % 0.00 in
05:47 77.5 °F 75.7 °F 30.00 in Calm   1.0 mph 94 % 0.00 in
05:52 77.4 °F 75.6 °F 30.00 in Calm     94 % 0.00 in
05:57 77.4 °F 75.6 °F 30.01 in Calm     94 % 0.00 in
06:02 77.5 °F 75.9 °F 30.01 in Calm   2.0 mph 95 % 0.00 in
06:07 77.5 °F 75.7 °F 30.01 in Calm   2.0 mph 94 % 0.00 in
06:12 77.5 °F 75.9 °F 30.01 in Calm   2.0 mph 95 % 0.00 in
06:17 77.5 °F 75.7 °F 30.01 in Calm   1.0 mph 94 % 0.00 in
06:22 77.5 °F 75.9 °F 30.01 in Calm   1.0 mph 95 % 0.00 in
06:27 77.5 °F 75.7 °F 30.02 in Calm   1.0 mph 94 % 0.00 in
06:32 77.4 °F 75.7 °F 30.02 in Calm   1.0 mph 95 % 0.00 in
06:37 77.4 °F 75.7 °F 30.02 in Calm   1.0 mph 95 % 0.00 in
06:42 77.2 °F 75.6 °F 30.02 in Calm     95 % 0.00 in
06:47 77.2 °F 75.6 °F 30.02 in Calm     95 % 0.00 in
06:52 77.2 °F 75.6 °F 30.02 in Calm     95 % 0.00 in
06:57 77.0 °F 75.4 °F 30.02 in Calm     95 % 0.00 in
07:02 77.2 °F 75.6 °F 30.02 in Calm     95 % 0.00 in
07:07 77.4 °F 76.1 °F 30.02 in Calm     96 % 0.00 in
07:08 77.4 °F 76.1 °F 30.02 in Calm     96 % 0.00 in
07:13 77.7 °F 76.5 °F 30.02 in Calm     96 % 0.00 in
07:18 77.9 °F 76.3 °F 30.02 in Calm     95 % 0.00 in
07:23 78.1 °F 76.5 °F 30.02 in Calm   1.0 mph 95 % 0.00 in
07:28 78.6 °F 77.0 °F 30.02 in Calm   1.0 mph 95 % 0.00 in
07:33 79.0 °F 77.2 °F 30.03 in NW 1.0 mph 2.0 mph 94 % 0.00 in
07:38 79.3 °F 77.5 °F 30.03 in Calm   2.0 mph 94 % 0.00 in
07:43 79.9 °F 77.7 °F 30.03 in NW 1.0 mph 2.0 mph 93 % 0.00 in
07:48 80.1 °F 77.5 °F 30.03 in NW 2.0 mph 2.0 mph 92 % 0.00 in
07:53 80.6 °F 78.1 °F 30.03 in Calm   3.0 mph 92 % 0.00 in
07:58 81.1 °F 78.3 °F 30.03 in Calm   3.0 mph 91 % 0.00 in
08:03 82.0 °F 79.2 °F 30.03 in Calm   3.0 mph 91 % 0.00 in
08:08 82.9 °F 79.7 °F 30.04 in Calm   2.0 mph 90 % 0.00 in
08:13 84.0 °F 80.1 °F 30.04 in Calm   1.0 mph 88 % 0.00 in
08:18 84.4 °F 80.1 °F 30.04 in Calm   1.0 mph 87 % 0.00 in
08:23 84.0 °F 79.0 °F 30.04 in Calm   1.0 mph 85 % 0.00 in
08:28 84.4 °F 79.3 °F 30.04 in Calm   3.0 mph 85 % 0.00 in
08:33 84.7 °F 79.7 °F 30.04 in Calm   3.0 mph 85 % 0.00 in
08:38 85.5 °F 80.1 °F 30.05 in Calm   3.0 mph 84 % 0.00 in
08:43 85.8 °F 80.4 °F 30.05 in Calm   4.0 mph 84 % 0.00 in
08:48 86.4 °F 80.2 °F 30.05 in Calm   4.0 mph 82 % 0.00 in
08:53 87.1 °F 81.0 °F 30.05 in South 5.0 mph 5.0 mph 82 % 0.00 in
08:59 86.9 °F 80.4 °F 30.05 in SE 3.0 mph 5.0 mph 81 % 0.00 in
09:04 86.9 °F 80.4 °F 30.04 in Calm   5.0 mph 81 % 0.00 in
09:09 86.7 °F 80.2 °F 30.04 in Calm   5.0 mph 81 % 0.00 in
09:14 86.5 °F 80.1 °F 30.04 in Calm   4.0 mph 81 % 0.00 in
09:19 86.7 °F 80.6 °F 30.04 in South 1.0 mph 3.0 mph 82 % 0.00 in
09:24 86.7 °F 80.2 °F 30.04 in SSE 1.0 mph 3.0 mph 81 % 0.00 in
09:29 86.9 °F 80.1 °F 30.04 in SSE 2.0 mph 5.0 mph 80 % 0.00 in
09:34 87.3 °F 80.2 °F 30.05 in South 3.0 mph 6.0 mph 80 % 0.00 in
09:39 87.1 °F 78.6 °F 30.05 in SSW 4.0 mph 6.0 mph 76 % 0.00 in
09:44 87.1 °F 79.7 °F 30.05 in WSW 3.0 mph 10.0 mph 79 % 0.00 in
09:49 87.6 °F 79.5 °F 30.05 in South 3.0 mph 10.0 mph 77 % 0.00 in
09:54 87.6 °F 79.2 °F 30.05 in SSE 3.0 mph 10.0 mph 76 % 0.00 in
09:59 87.6 °F 78.3 °F 30.05 in SE 4.0 mph 7.0 mph 74 % 0.00 in
10:04 87.4 °F 78.1 °F 30.05 in SE 9.0 mph 9.0 mph 74 % 0.00 in
10:09 87.8 °F 77.7 °F 30.05 in SSE 1.0 mph 10.0 mph 72 % 0.00 in
10:14 88.3 °F 78.6 °F 30.05 in SSW 1.0 mph 10.0 mph 73 % 0.00 in
10:19 89.1 °F 78.8 °F 30.05 in SSE 5.0 mph 10.0 mph 72 % 0.00 in
10:24 89.1 °F 78.4 °F 30.05 in SSE 2.0 mph 7.0 mph 71 % 0.00 in
10:29 89.1 °F 77.2 °F 30.05 in SSE 3.0 mph 7.0 mph 68 % 0.00 in
10:34 89.1 °F 78.1 °F 30.05 in SSW 5.0 mph 10.0 mph 70 % 0.00 in
10:39 89.4 °F 78.3 °F 30.05 in South 4.0 mph 10.0 mph 70 % 0.00 in
10:44 89.4 °F 77.5 °F 30.06 in Calm   10.0 mph 68 % 0.00 in
10:49 90.0 °F 78.4 °F 30.06 in SW 2.0 mph 10.0 mph 69 % 0.00 in
10:54 90.3 °F 77.9 °F 30.06 in SSE 5.0 mph 10.0 mph 67 % 0.00 in
10:59 90.3 °F 77.4 °F 30.06 in SSW 2.0 mph 10.0 mph 66 % 0.00 in
11:04 90.0 °F 77.9 °F 30.06 in South 1.0 mph 8.0 mph 68 % 0.00 in
11:09 90.3 °F 77.4 °F 30.06 in SE 4.0 mph 8.0 mph 66 % 0.00 in
11:14 90.3 °F 77.0 °F 30.06 in SSW 2.0 mph 8.0 mph 65 % 0.00 in
11:15 90.3 °F 77.0 °F 30.06 in SW 4.0 mph 8.0 mph 65 % 0.00 in
11:20 90.3 °F 77.0 °F 30.06 in SE 3.0 mph 7.0 mph 65 % 0.00 in
11:25 90.5 °F 77.2 °F 30.06 in SE 4.0 mph 7.0 mph 65 % 0.00 in
11:30 90.7 °F 76.3 °F 30.05 in SE 5.0 mph 11.0 mph 63 % 0.00 in
11:35 90.7 °F 77.4 °F 30.06 in SSW 4.0 mph 11.0 mph 65 % 0.00 in
11:40 90.9 °F 77.5 °F 30.05 in SW 1.0 mph 11.0 mph 65 % 0.00 in
11:45 91.8 °F 78.3 °F 30.05 in SW 1.0 mph 11.0 mph 65 % 0.00 in
11:50 92.1 °F 79.2 °F 30.05 in SSE 4.0 mph 12.0 mph 66 % 0.00 in
11:55 92.1 °F 76.3 °F 30.05 in East 3.0 mph 12.0 mph 60 % 0.00 in
12:00 91.8 °F 76.8 °F 30.05 in SSE 9.0 mph 12.0 mph 62 % 0.00 in
12:05 91.6 °F 76.3 °F 30.05 in SSE 1.0 mph 11.0 mph 61 % 0.00 in
12:10 91.9 °F 77.0 °F 30.05 in SW 5.0 mph 11.0 mph 62 % 0.00 in
12:15 92.1 °F 75.7 °F 30.05 in ESE 1.0 mph 9.0 mph 59 % 0.00 in
12:20 92.5 °F 77.0 °F 30.05 in SSW 6.0 mph 9.0 mph 61 % 0.00 in
12:25 92.1 °F 75.7 °F 30.05 in SSE 3.0 mph 9.0 mph 59 % 0.00 in
12:30 92.5 °F 75.6 °F 30.05 in SE 2.0 mph 8.0 mph 58 % 0.00 in
12:35 92.8 °F 77.9 °F 30.04 in SSW 4.0 mph 8.0 mph 62 % 0.00 in
12:40 93.6 °F 77.5 °F 30.04 in ESE 1.0 mph 8.0 mph 60 % 0.00 in
12:45 93.9 °F 77.4 °F 30.04 in South 2.0 mph 8.0 mph 59 % 0.00 in
12:50 94.1 °F 76.5 °F 30.04 in South 2.0 mph 8.0 mph 57 % 0.00 in
12:55 94.5 °F 76.8 °F 30.03 in SE 11.0 mph 11.0 mph 57 % 0.00 in
13:00 93.7 °F 77.2 °F 30.03 in Calm   11.0 mph 59 % 0.00 in
13:05 93.9 °F 77.4 °F 30.03 in SSW 4.0 mph 11.0 mph 59 % 0.00 in
13:10 94.5 °F 76.8 °F 30.03 in SSW 1.0 mph 11.0 mph 57 % 0.00 in
13:15 94.6 °F 78.1 °F 30.02 in WSW 4.0 mph 8.0 mph 59 % 0.00 in
13:20 94.8 °F 76.1 °F 30.02 in SSW 6.0 mph 8.0 mph 55 % 0.00 in
13:25 94.8 °F 76.1 °F 30.02 in Calm   9.0 mph 55 % 0.00 in
13:30 94.6 °F 74.8 °F 30.02 in SSW 2.0 mph 9.0 mph 53 % 0.00 in
13:35 93.9 °F 75.7 °F 30.02 in SSE 7.0 mph 9.0 mph 56 % 0.00 in
13:40 93.9 °F 74.7 °F 30.01 in South 5.0 mph 10.0 mph 54 % 0.00 in
13:45 93.9 °F 74.7 °F 30.01 in SE 8.0 mph 10.0 mph 54 % 0.00 in
13:50 94.1 °F 75.4 °F 30.01 in SSE 4.0 mph 10.0 mph 55 % 0.00 in
13:55 94.5 °F 76.3 °F 30.01 in South 4.0 mph 9.0 mph 56 % 0.00 in
14:00 94.6 °F 75.4 °F 30.01 in SSE 2.0 mph 8.0 mph 54 % 0.00 in
14:05 95.0 °F 74.7 °F 30.01 in South 6.0 mph 10.0 mph 52 % 0.00 in
14:10 94.8 °F 76.1 °F 30.01 in SE 4.0 mph 12.0 mph 55 % 0.00 in
14:15 94.5 °F 74.7 °F 30.00 in East 4.0 mph 12.0 mph 53 % 0.00 in
14:20 95.0 °F 74.7 °F 30.00 in East 5.0 mph 12.0 mph 52 % 0.00 in
14:25 95.2 °F 75.9 °F 29.99 in ESE 5.0 mph 9.0 mph 54 % 0.00 in
14:30 95.4 °F 75.6 °F 29.99 in SSW 2.0 mph 9.0 mph 53 % 0.00 in
14:35 96.3 °F 75.2 °F 29.99 in SSE 1.0 mph 8.0 mph 51 % 0.00 in
14:40 96.6 °F 74.8 °F 29.99 in SSW 4.0 mph 8.0 mph 50 % 0.00 in
14:45 96.6 °F 74.3 °F 29.99 in WSW 1.0 mph 8.0 mph 49 % 0.00 in
14:55 97.0 °F 74.7 °F 29.98 in SSE 7.0 mph 8.0 mph 49 % 0.00 in
15:00 97.0 °F 74.7 °F 29.98 in SSW 4.0 mph 8.0 mph 49 % 0.00 in
15:05 97.0 °F 74.7 °F 29.98 in ENE 2.0 mph 8.0 mph 49 % 0.00 in
15:10 97.2 °F 73.6 °F 29.98 in ESE 1.0 mph 7.0 mph 47 % 0.00 in
15:15 97.2 °F 74.8 °F 29.98 in South 5.0 mph 9.0 mph 49 % 0.00 in
15:20 96.8 °F 75.7 °F 29.97 in SE 5.0 mph 9.0 mph 51 % 0.00 in
15:25 96.4 °F 74.8 °F 29.97 in SSW 6.0 mph 9.0 mph 50 % 0.00 in
15:30 96.4 °F 74.8 °F 29.97 in East 3.0 mph 9.0 mph 50 % 0.00 in
15:35 97.0 °F 75.2 °F 29.97 in SSE 3.0 mph 9.0 mph 50 % 0.00 in
15:40 97.5 °F 75.2 °F 29.96 in South 2.0 mph 9.0 mph 49 % 0.00 in
15:45 98.1 °F 75.0 °F 29.96 in Calm   7.0 mph 48 % 0.00 in
15:50 98.8 °F 75.7 °F 29.96 in NW 2.0 mph 6.0 mph 48 % 0.00 in
15:55 99.1 °F 75.4 °F 29.96 in East 2.0 mph 15.0 mph 47 % 0.00 in
15:57 99.0 °F 74.5 °F 29.96 in SE 2.0 mph 15.0 mph 46 % 0.00 in
16:02 98.4 °F 74.1 °F 29.96 in SE 5.0 mph 15.0 mph 46 % 0.00 in
16:07 97.9 °F 75.4 °F 29.96 in South 5.0 mph 15.0 mph 49 % 0.00 in
16:12 97.7 °F 74.1 °F 29.96 in ESE 1.0 mph 9.0 mph 47 % 0.00 in
16:17 97.9 °F 73.6 °F 29.96 in ESE 4.0 mph 9.0 mph 46 % 0.00 in
16:23 97.5 °F 74.5 °F 29.95 in SSE 6.0 mph 8.0 mph 48 % 0.00 in
16:28 98.1 °F 74.3 °F 29.95 in SE 2.0 mph 8.0 mph 47 % 0.00 in
16:33 98.2 °F 73.9 °F 29.94 in SE 4.0 mph 8.0 mph 46 % 0.00 in
16:38 98.1 °F 73.8 °F 29.94 in South 6.0 mph 8.0 mph 46 % 0.00 in
16:43 97.9 °F 72.9 °F 29.94 in SE 6.0 mph 7.0 mph 45 % 0.00 in
16:48 97.9 °F 74.3 °F 29.94 in East 4.0 mph 7.0 mph 47 % 0.00 in
16:53 97.9 °F 73.6 °F 29.94 in SSW 5.0 mph 8.0 mph 46 % 0.00 in
16:58 97.9 °F 74.3 °F 29.94 in ESE 7.0 mph 8.0 mph 47 % 0.00 in
17:03 97.3 °F 73.0 °F 29.94 in ESE 5.0 mph 8.0 mph 46 % 0.00 in
17:08 97.2 °F 73.6 °F 29.93 in ESE 5.0 mph 8.0 mph 47 % 0.00 in
17:13 97.2 °F 74.1 °F 29.93 in ESE 5.0 mph 10.0 mph 48 % 0.00 in
17:18 97.2 °F 74.1 °F 29.93 in Calm   10.0 mph 48 % 0.00 in
17:23 97.5 °F 73.9 °F 29.93 in SSE 4.0 mph 10.0 mph 47 % 0.00 in
17:28 97.7 °F 74.1 °F 29.93 in East 5.0 mph 8.0 mph 47 % 0.00 in
17:33 97.2 °F 72.9 °F 29.93 in East 3.0 mph 8.0 mph 46 % 0.00 in
17:38 97.0 °F 73.4 °F 29.92 in SSE 1.0 mph 8.0 mph 47 % 0.00 in
17:39 97.0 °F 73.9 °F 29.92 in ESE 3.0 mph 8.0 mph 48 % 0.00 in
17:44 97.2 °F 73.6 °F 29.92 in SSE 3.0 mph 8.0 mph 47 % 0.00 in
17:49 97.2 °F 76.6 °F 29.92 in SE 8.0 mph 8.0 mph 52 % 0.00 in
17:54 95.7 °F 77.0 °F 29.92 in SSE 10.0 mph 16.0 mph 55 % 0.00 in
17:59 94.6 °F 77.5 °F 29.92 in SE 9.0 mph 16.0 mph 58 % 0.00 in
18:04 93.6 °F 77.0 °F 29.92 in SSE 12.0 mph 16.0 mph 59 % 0.00 in
18:09 92.8 °F 76.8 °F 29.92 in ESE 11.0 mph 14.0 mph 60 % 0.00 in
18:14 93.0 °F 77.0 °F 29.92 in ESE 9.0 mph 14.0 mph 60 % 0.00 in
18:19 92.8 °F 77.4 °F 29.92 in SE 4.0 mph 14.0 mph 61 % 0.00 in
18:24 92.7 °F 77.2 °F 29.92 in SE 8.0 mph 14.0 mph 61 % 0.00 in
18:29 92.5 °F 77.0 °F 29.92 in SE 7.0 mph 12.0 mph 61 % 0.00 in
18:34 92.5 °F 77.0 °F 29.92 in SE 4.0 mph 13.0 mph 61 % 0.00 in
18:39 92.1 °F 76.6 °F 29.92 in ESE 8.0 mph 13.0 mph 61 % 0.00 in
18:44 91.9 °F 77.0 °F 29.92 in East 4.0 mph 13.0 mph 62 % 0.00 in
18:49 91.9 °F 76.6 °F 29.92 in SE 5.0 mph 12.0 mph 61 % 0.00 in
18:54 91.8 °F 76.5 °F 29.92 in SE 7.0 mph 12.0 mph 61 % 0.00 in
18:59 91.8 °F 76.5 °F 29.91 in SSE 3.0 mph 12.0 mph 61 % 0.00 in
19:04 91.8 °F 76.5 °F 29.92 in SSW 4.0 mph 11.0 mph 61 % 0.00 in
19:09 91.6 °F 76.3 °F 29.92 in SSE 5.0 mph 11.0 mph 61 % 0.00 in
19:14 91.8 °F 76.8 °F 29.92 in ESE 5.0 mph 10.0 mph 62 % 0.00 in
19:19 91.8 °F 76.5 °F 29.92 in South 5.0 mph 10.0 mph 61 % 0.00 in
19:24 91.6 °F 76.3 °F 29.92 in SE 5.0 mph 10.0 mph 61 % 0.00 in
19:29 91.6 °F 75.7 °F 29.92 in ESE 5.0 mph 8.0 mph 60 % 0.00 in
19:34 91.2 °F 74.8 °F 29.92 in SE 5.0 mph 8.0 mph 59 % 0.00 in
19:39 91.2 °F 74.8 °F 29.92 in SE 4.0 mph 9.0 mph 59 % 0.00 in
19:40 91.2 °F 74.3 °F 29.92 in East 3.0 mph 9.0 mph 58 % 0.00 in
19:45 90.9 °F 74.1 °F 29.92 in SSE 5.0 mph 9.0 mph 58 % 0.00 in
19:50 90.7 °F 73.9 °F 29.92 in ESE 3.0 mph 8.0 mph 58 % 0.00 in
19:56 90.5 °F 74.1 °F 29.92 in ENE 6.0 mph 7.0 mph 59 % 0.00 in
20:00 90.1 °F 74.3 °F 29.92 in East 2.0 mph 7.0 mph 60 % 0.00 in
20:05 90.0 °F 75.2 °F 29.92 in East 5.0 mph 8.0 mph 62 % 0.00 in
20:10 90.0 °F 75.7 °F 29.92 in ESE 4.0 mph 8.0 mph 63 % 0.00 in
20:16 90.0 °F 75.7 °F 29.92 in ESE 3.0 mph 8.0 mph 63 % 0.00 in
20:21 89.8 °F 75.9 °F 29.91 in South 2.0 mph 7.0 mph 64 % 0.00 in
20:26 89.4 °F 76.1 °F 29.92 in SSE 2.0 mph 6.0 mph 65 % 0.00 in
20:31 89.2 °F 75.9 °F 29.92 in ESE 2.0 mph 6.0 mph 65 % 0.00 in
20:36 89.2 °F 75.9 °F 29.92 in SSE 1.0 mph 6.0 mph 65 % 0.00 in
20:41 89.1 °F 76.3 °F 29.92 in SE 6.0 mph 7.0 mph 66 % 0.00 in
20:46 89.1 °F 76.3 °F 29.92 in SE 4.0 mph 8.0 mph 66 % 0.00 in
20:51 88.9 °F 76.1 °F 29.92 in SE 5.0 mph 8.0 mph 66 % 0.00 in
20:56 88.5 °F 76.1 °F 29.91 in SE 3.0 mph 8.0 mph 67 % 0.00 in
21:01 88.3 °F 75.9 °F 29.91 in South 5.0 mph 8.0 mph 67 % 0.00 in
21:06 88.3 °F 75.6 °F 29.91 in SE 4.0 mph 9.0 mph 66 % 0.00 in
21:11 88.3 °F 75.6 °F 29.91 in SSE 4.0 mph 9.0 mph 66 % 0.00 in
21:16 88.2 °F 75.7 °F 29.92 in SSE 9.0 mph 9.0 mph 67 % 0.00 in
21:21 88.0 °F 75.6 °F 29.92 in SE 5.0 mph 9.0 mph 67 % 0.00 in
21:26 88.0 °F 75.6 °F 29.92 in SSW 4.0 mph 9.0 mph 67 % 0.00 in
21:31 87.6 °F 75.4 °F 29.92 in SE 3.0 mph 9.0 mph 67 % 0.00 in
21:36 87.6 °F 75.4 °F 29.92 in SSE 5.0 mph 8.0 mph 67 % 0.00 in
21:41 87.4 °F 75.6 °F 29.92 in South 4.0 mph 8.0 mph 68 % 0.00 in
21:46 87.3 °F 75.4 °F 29.92 in SSW 3.0 mph 8.0 mph 68 % 0.00 in
21:51 87.1 °F 75.7 °F 29.93 in SSE 3.0 mph 7.0 mph 69 % 0.00 in
21:56 86.7 °F 75.4 °F 29.92 in SSE 4.0 mph 7.0 mph 69 % 0.00 in
22:01 86.7 °F 75.4 °F 29.92 in South 3.0 mph 7.0 mph 69 % 0.00 in
22:06 86.5 °F 75.2 °F 29.92 in SSW 2.0 mph 7.0 mph 69 % 0.00 in
22:11 86.4 °F 75.4 °F 29.92 in SSE 3.0 mph 6.0 mph 70 % 0.00 in
22:16 86.2 °F 75.2 °F 29.92 in SSE 3.0 mph 6.0 mph 70 % 0.00 in
22:21 86.2 °F 75.2 °F 29.92 in South 6.0 mph 7.0 mph 70 % 0.00 in
22:26 86.0 °F 75.0 °F 29.92 in SSW 4.0 mph 7.0 mph 70 % 0.00 in
22:31 86.0 °F 75.6 °F 29.92 in SE 2.0 mph 8.0 mph 71 % 0.00 in
22:36 85.8 °F 75.4 °F 29.92 in South 4.0 mph 8.0 mph 71 % 0.00 in
22:41 85.8 °F 75.7 °F 29.92 in SSW 4.0 mph 10.0 mph 72 % 0.00 in
22:51 85.6 °F 75.9 °F 29.92 in SSE 3.0 mph 10.0 mph 73 % 0.00 in
22:56 85.5 °F 75.7 °F 29.93 in SSE 5.0 mph 10.0 mph 73 % 0.00 in
23:01 85.5 °F 75.7 °F 29.93 in SSE 5.0 mph 10.0 mph 73 % 0.00 in
23:06 85.3 °F 76.1 °F 29.92 in SSE 4.0 mph 9.0 mph 74 % 0.00 in
23:11 85.3 °F 76.1 °F 29.93 in SSE 3.0 mph 9.0 mph 74 % 0.00 in
23:16 84.9 °F 76.1 °F 29.93 in SSW 3.0 mph 7.0 mph 75 % 0.00 in
23:17 84.9 °F 76.1 °F 29.93 in SSW 1.0 mph 7.0 mph 75 % 0.00 in
23:22 84.7 °F 75.9 °F 29.94 in SSE 3.0 mph 7.0 mph 75 % 0.00 in
23:27 84.6 °F 76.5 °F 29.94 in SSE 5.0 mph 7.0 mph 77 % 0.00 in
23:32 84.6 °F 77.0 °F 29.94 in SE 7.0 mph 8.0 mph 78 % 0.00 in
23:37 84.4 °F 77.2 °F 29.94 in SSW 7.0 mph 10.0 mph 79 % 0.00 in
23:42 84.2 °F 77.4 °F 29.94 in SSW 5.0 mph 11.0 mph 80 % 0.00 in
23:47 84.0 °F 77.5 °F 29.94 in SSE 6.0 mph 11.0 mph 81 % 0.00 in
23:52 83.8 °F 77.4 °F 29.94 in SSW 4.0 mph 11.0 mph 81 % 0.00 in
23:57 83.8 °F 77.4 °F 29.94 in SSW 1.0 mph 8.0 mph 81 % 0.00 in
Spring, Texas: Villages of Bridgestone
Compliments of Weather Underground - 2.75 mb

Script developed by  Jim McMurry - jmcmurry@mwt.net Adapted for the template by  Wim van der Kuil - Leuven-Template.eu

You find our weather info also at:

UK Metoffice

WeatherCloud

Weather Underground

Mid-South Weather Network

AWEKAS

Citizen Weather Observer Program (CWOP)

HAMweather, WeatherForYou, PWS Weather

Equipment we use:

Weather-station
Davis Vantage Vue

Weather-program
Meteohub

Weather-server
Debian 7.9 x86 (Guest)

Provider
DreamHost

Davis Vantage Vue

Meteohub

Debian 7.9 x86 (Guest)

DreamHost